Wind_Speed
10 9 10 10 8 6 11 12 4 9 12 6 8 12 14 15 16 6 20 15 19 20 17 15 14 13 11 10 10 11 10 10 11 13 14 13 12 14 13 13 11 11 9 7 6 6 7 8 7
10 11 13 7 4 5 9 11 16 13 9 7 5 2 5 14 12 18 16 19 20 18 18 15 15 13 12 11 11 11 10 11 12 12 12 11 12 12 11 11 11 11 10 9 8 7 6 6 7
11 14 10 13 14 9 11 14 13 9 6 3 4 7 7 11 14 18 20 20 19 18 17 17 17 14 12 12 12 11 11 11 12 12 11 12 11 11 12 12 11 10 9 9 9 8 7 7 7
10 9 7 0 5 11 12 12 5 10 9 5 4 13 13 17 8 16 22 19 19 18 17 18 17 14 13 13 12 12 11 11 12 12 12 12 11 11 12 11 10 10 10 9 9 8 8 8 7
15 9 14 10 15 10 13 9 12 8 6 9 3 15 11 9 15 22 21 19 19 19 17 17 17 15 14 13 12 12 12 12 12 12 12 13 12 11 11 11 11 12 11 10 10 9 8 6 5
9 11 9 2 14 7 13 7 4 12 8 6 12 14 12 14 19 20 20 19 18 19 18 17 16 15 15 14 13 13 12 12 12 12 12 12 11 11 11 12 13 13 13 13 11 10 9 8 6
15 12 10 11 13 10 12 3 11 7 6 9 10 10 11 15 17 19 18 17 17 18 19 18 16 15 15 15 14 13 12 13 13 12 12 11 11 11 11 11 11 10 11 11 11 11 10 10 9
13 11 4 5 6 14 12 4 9 7 10 7 3 4 14 18 19 19 17 17 17 17 17 18 17 15 14 14 16 14 12 12 12 11 11 10 10 10 8 9 8 8 8 8 8 10 9 10 10
12 12 10 5 4 12 13 11 7 8 9 3 6 2 22 21 20 20 18 17 16 15 17 18 18 16 16 15 14 15 14 13 11 10 9 8 10 8 9 6 4 6 7 7 6 5 8 9 10
13 13 5 9 6 1 11 10 11 9 8 9 6 15 22 22 21 19 18 17 18 16 15 17 17 17 16 14 13 13 11 9 8 7 7 10 2 5 8 6 5 3 5 5 8 5 8 12 8
15 16 10 6 3 6 9 10 10 9 11 12 13 14 18 19 18 18 17 17 17 16 16 15 15 13 13 13 12 13 11 11 9 8 7 2 3 4 8 10 7 4 2 9 5 4 10 7 5
15 14 1 6 3 6 6 14 6 3 8 13 16 17 17 18 16 17 16 15 17 18 16 14 16 14 12 12 11 11 10 9 8 8 8 5 4 3 3 4 8 4 1 1 2 4 3 3 0
14 14 7 4 3 7 4 10 7 6 7 15 17 17 17 16 17 17 17 15 15 17 17 17 16 15 14 9 11 9 8 9 9 8 8 7 5 3 3 4 6 5 3 1 1 3 3 4 2
15 17 8 6 7 8 10 8 5 11 9 16 17 17 16 16 17 17 17 18 16 17 18 18 17 16 14 12 9 9 9 9 9 8 7 7 6 3 6 3 7 1 4 2 1 1 1 1 4
12 14 13 11 11 7 12 14 13 15 12 16 16 16 16 15 19 18 18 17 18 17 18 18 17 16 16 15 12 10 10 10 10 8 7 8 7 6 5 3 6 2 2 3 3 4 3 6 6
14 15 16 16 9 8 13 18 18 13 14 16 16 15 16 17 19 20 18 18 19 17 18 18 18 18 17 15 13 12 11 12 10 10 9 10 9 7 6 8 10 5 4 5 3 4 6 7 5
15 14 18 11 10 8 15 11 17 16 15 15 16 16 16 17 18 21 21 21 20 18 18 19 19 19 18 16 14 13 11 12 11 11 10 9 9 8 7 8 6 0 9 6 5 6 6 5 7
18 19 17 15 14 10 14 15 19 14 16 14 16 16 16 17 20 22 23 23 22 22 19 20 21 20 20 17 16 14 14 14 15 14 13 10 11 9 8 10 7 3 10 5 7 7 6 8 9
13 14 20 9 8 17 17 15 11 17 14 15 16 16 17 18 18 26 26 26 25 24 23 22 23 22 21 20 19 18 18 17 16 16 14 13 13 11 9 10 10 8 11 7 5 9 9 9 7
12 16 16 13 14 8 16 17 16 17 16 15 14 15 17 18 19 22 29 29 30 28 27 27 25 24 25 21 21 19 18 16 16 15 15 16 15 13 11 11 11 8 11 9 9 9 12 11 7
15 18 15 18 10 13 17 19 15 13 11 15 15 14 18 19 21 21 25 32 32 31 30 30 29 27 28 27 22 18 16 14 14 15 16 16 16 15 13 11 12 9 8 11 9 8 9 14 10
15 15 17 18 12 11 18 15 17 17 17 17 13 15 17 19 21 22 23 30 34 35 32 30 30 29 30 29 24 24 21 19 18 15 18 19 17 17 14 16 13 13 13 12 8 8 12 12 15
14 12 11 17 15 15 23 13 14 12 19 18 19 20 18 19 20 24 26 34 34 33 34 32 31 31 30 29 29 26 23 18 15 14 13 13 13 15 15 14 16 15 14 13 10 11 12 14 16
10 9 11 15 16 18 20 20 14 13 16 16 19 18 22 20 19 21 30 32 33 35 35 34 31 31 30 30 30 24 22 20 15 14 11 12 14 14 15 16 15 15 14 12 11 11 14 16 16
11 11 10 11 12 16 19 21 19 19 19 15 15 16 19 18 17 18 21 23 32 33 34 32 29 27 27 28 25 24 18 17 13 9 12 14 12 13 14 16 16 14 13 11 10 10 13 13 11
15 14 12 13 12 13 22 20 17 16 8 9 18 18 15 13 17 8 16 21 31 33 35 31 28 24 22 22 18 16 9 4 7 11 12 14 13 9 9 11 10 10 8 7 7 7 9 7 4
12 15 16 17 17 14 13 11 4 10 9 11 16 15 12 10 7 12 14 20 27 32 34 33 28 21 20 18 19 18 12 3 8 11 15 14 10 6 8 7 6 6 5 5 4 4 5 5 6
14 6 9 9 14 15 14 12 10 11 10 9 11 8 3 7 4 7 10 8 15 19 27 27 28 28 26 23 23 20 13 6 16 19 17 13 7 8 8 7 5 4 5 4 2 3 6 6 8
8 12 12 12 10 12 9 7 13 12 10 11 13 14 13 9 8 5 3 2 10 19 23 28 30 31 24 18 17 19 26 15 30 20 10 8 7 5 5 6 7 7 6 4 1 2 5 6 6
9 13 9 7 9 11 11 13 17 9 5 11 15 16 11 8 1 1 8 7 20 17 20 23 24 23 24 17 14 18 19 20 24 17 9 9 8 7 6 7 8 7 4 1 2 4 4 5 7
Wind_Direction
219 225 239 252 262 215 89 91 48 50 62 52 44 1 44 32 25 98 138 126 128 128 141 140 138 132 127 125 122 121 115 110 104 100 93 83 86 87 82 80 77 74 76 81 83 94 113 105 103
219 233 244 275 273 277 80 57 55 55 61 70 85 263 70 73 75 130 125 133 128 135 140 142 140 134 134 133 132 129 124 113 108 104 96 99 94 92 91 89 84 76 71 71 79 90 99 102 95
242 242 273 246 213 50 87 66 72 89 111 41 130 25 9 90 115 142 130 137 135 140 141 144 140 138 140 141 141 135 124 116 111 110 107 106 103 97 93 85 81 77 74 68 70 90 104 108 105
230 226 242 271 26 53 93 77 122 118 107 37 57 93 85 110 112 122 142 142 141 145 144 146 143 146 147 146 143 135 126 120 119 119 117 113 110 102 94 88 77 71 73 73 76 84 100 110 104
241 260 257 218 89 110 84 76 47 109 121 70 326 95 111 101 116 138 144 148 150 149 144 150 148 149 147 148 145 139 134 130 127 125 121 117 112 103 97 88 82 76 77 79 78 87 94 109 112
243 253 275 329 92 85 111 129 113 53 63 84 94 126 96 124 139 150 152 154 154 145 149 152 153 150 150 152 152 147 142 137 133 129 123 121 118 111 104 98 91 84 79 77 77 85 90 103 107
256 253 244 209 112 181 108 110 66 59 112 68 136 118 127 152 151 154 160 155 153 149 149 155 156 157 155 159 158 153 151 146 139 133 126 124 123 116 111 103 94 84 78 81 85 84 93 97 96
271 284 249 244 139 101 102 140 67 2 78 99 163 132 162 147 164 158 163 159 158 156 154 160 161 162 161 167 165 159 155 149 143 136 130 122 116 106 100 103 91 79 73 80 90 109 110 104 99
242 262 220 141 189 106 125 134 96 84 127 93 62 275 141 152 162 164 165 165 162 166 163 165 166 170 171 168 173 165 163 157 151 144 141 159 157 158 125 145 110 94 83 77 78 120 130 128 116
238 240 65 27 19 187 137 147 118 178 140 117 118 95 131 159 169 170 172 172 169 173 170 169 172 173 175 165 174 174 176 169 171 178 198 235 171 96 144 155 153 128 125 118 80 112 166 169 178
227 262 93 146 46 286 138 135 117 229 168 137 144 145 153 167 174 178 178 179 170 178 172 180 175 182 175 174 174 183 187 189 198 201 204 213 185 220 223 193 179 211 148 224 194 178 214 228 211
248 254 270 79 124 209 203 113 138 302 40 101 141 153 160 171 175 185 182 185 174 175 181 186 176 186 198 184 186 189 194 195 205 207 207 199 230 258 298 195 191 248 240 27 351 81 79 102 271
226 252 219 200 236 249 178 151 164 164 101 123 144 155 164 175 177 187 181 186 185 176 182 192 182 189 195 208 192 201 203 203 207 197 209 227 229 151 287 273 318 319 332 130 90 98 178 159 182
216 265 212 229 237 199 236 159 179 141 142 140 157 165 171 180 180 182 186 185 192 182 185 193 194 188 194 200 204 202 208 201 211 207 204 218 237 175 246 297 237 139 316 283 8 68 229 234 250
261 247 239 237 232 212 240 191 187 143 163 155 170 172 174 189 186 183 187 184 190 186 183 195 195 190 196 200 199 204 207 211 212 215 212 219 236 226 282 256 264 183 240 288 277 312 282 255 253
226 239 236 219 198 203 214 217 173 151 172 168 180 179 181 190 193 186 189 187 182 191 181 191 196 194 197 199 199 205 209 212 214 215 215 214 229 247 272 252 297 105 252 252 282 287 278 293 291
212 225 230 193 195 208 215 224 181 163 186 175 185 185 193 188 205 190 192 193 189 196 185 188 197 198 197 198 202 207 212 216 218 219 225 207 229 248 234 272 260 15 267 280 285 250 276 283 277
211 223 224 241 167 229 213 258 139 171 185 192 187 196 197 197 198 203 201 198 199 193 196 193 197 205 191 198 202 208 215 217 219 222 222 216 225 229 220 246 250 263 266 261 261 303 279 279 294
251 257 224 225 215 191 238 223 183 168 203 208 188 197 205 207 200 202 207 205 200 201 197 200 200 199 196 200 202 209 213 217 223 225 226 224 226 231 211 241 207 227 270 270 299 266 244 269 252
277 259 268 241 201 208 230 244 238 185 195 218 210 202 209 207 209 201 205 207 205 201 201 204 206 201 200 205 211 214 216 221 220 224 221 223 222 223 219 222 255 227 262 230 251 254 278 251 243
238 246 240 259 178 231 253 246 234 244 259 210 217 230 211 212 208 209 206 205 206 205 199 205 205 203 201 207 207 214 224 230 220 225 218 218 220 217 217 220 233 270 239 262 229 237 250 277 247
244 226 255 260 243 223 223 254 235 226 239 249 249 233 238 225 210 208 207 207 206 206 204 206 206 206 207 203 206 206 208 216 220 219 223 200 207 213 211 215 213 231 239 243 235 238 244 251 273
255 286 235 254 256 252 262 229 264 252 213 229 242 250 236 233 228 212 210 209 209 207 202 201 203 204 206 202 211 207 214 219 227 213 209 205 202 212 215 224 223 224 229 242 245 246 245 259 257
262 249 252 251 245 245 246 260 241 234 240 223 241 244 253 239 229 225 215 208 205 208 205 202 200 200 200 203 210 217 207 220 228 214 226 219 215 214 220 221 224 226 226 233 237 245 252 255 274
231 224 225 220 225 247 248 246 252 262 271 257 246 254 270 266 235 216 220 209 203 204 207 204 197 202 200 202 205 211 218 214 223 216 239 234 216 219 214 217 217 221 219 232 241 252 261 265 267
205 241 253 256 240 251 221 235 251 251 310 278 298 288 284 290 291 225 220 225 211 202 200 201 195 199 199 200 193 190 188 230 270 271 252 249 243 230 217 213 214 221 214 214 234 260 285 282 270
227 225 244 274 281 277 278 306 248 248 240 228 243 250 257 235 303 302 283 216 228 211 199 189 185 189 181 157 145 138 132 90 300 277 277 255 243 228 207 197 194 194 194 198 199 241 241 257 266
266 309 237 234 262 275 277 253 263 192 209 235 287 291 49 61 286 282 259 260 218 237 206 176 160 135 126 129 141 142 135 136 297 280 248 250 227 205 185 186 185 176 156 141 153 218 254 268 288
183 234 244 278 303 304 284 255 57 23 348 331 315 301 346 28 5 336 82 85 105 83 92 104 119 121 134 134 144 136 133 216 239 260 248 246 216 198 188 161 149 148 141 145 138 289 296 298 306
322 315 324 248 235 243 273 289 311 322 333 319 311 299 7 12 246 130 80 116 99 102 116 126 132 143 153 174 190 213 240 234 208 236 200 186 171 174 158 149 139 144 147 194 293 290 326 311 307
Height
763 762 761 754 768 737 750 756 734 746 749 742 744 746 754 757 769 805 779 783 789 798 805 808 809 811 813 814 814 815 816 817 817 818 818 818 818 818 818 818 817 817 816 816 816 816 816 816 816
763 760 756 749 761 757 759 739 753 753 750 747 750 749 753 774 769 777 782 787 793 801 806 809 811 814 815 816 817 817 818 819 819 820 821 821 821 821 820 819 819 818 818 818 817 818 818 818 819
761 756 751 739 745 758 760 742 748 750 746 749 754 752 757 776 776 778 785 790 796 802 806 809 812 815 816 818 819 820 821 821 821 822 823 823 823 823 823 823 821 820 819 819 818 818 819 819 819
757 748 742 752 750 741 746 741 743 743 749 748 749 770 770 775 777 781 788 793 798 802 806 810 812 816 818 819 820 822 823 823 823 823 824 825 825 825 825 824 823 822 821 820 820 820 820 820 820
756 739 743 753 738 737 737 739 738 750 751 755 752 771 780 779 782 787 790 794 797 801 807 811 813 816 818 820 822 823 824 824 825 825 826 826 826 827 826 826 825 824 823 822 821 821 822 822 821
749 729 749 757 746 737 731 730 736 745 745 757 761 772 777 783 786 788 791 794 797 801 808 812 814 817 819 820 822 823 824 825 826 827 827 827 827 827 827 827 826 825 825 823 823 822 822 822 822
752 737 750 741 744 743 734 725 734 746 747 755 754 768 779 783 786 787 790 793 796 801 807 813 817 819 819 821 823 825 826 826 827 828 829 828 828 828 829 829 828 827 827 825 824 824 823 823 823
739 730 738 732 739 746 730 730 734 738 756 748 747 764 782 778 785 787 790 793 796 800 806 811 816 819 821 822 823 825 828 829 830 830 830 830 831 831 830 830 830 829 829 828 826 825 824 824 824
737 747 739 733 740 732 725 734 734 739 751 750 755 754 764 779 783 786 789 792 796 800 803 808 813 817 819 822 824 825 827 828 830 831 831 831 830 830 830 832 831 830 829 828 828 827 825 825 824
743 740 731 722 724 726 724 730 738 744 752 759 762 760 770 779 782 784 787 790 794 799 802 805 811 814 816 820 825 828 829 831 832 832 831 829 831 831 831 831 830 829 829 827 826 826 825 824 823
739 743 723 728 726 721 721 729 732 740 748 748 764 766 772 778 781 783 786 788 792 798 802 804 810 814 815 819 825 826 828 829 831 831 831 831 831 832 831 829 830 828 826 826 825 824 824 822 820
747 726 727 724 725 725 725 722 741 735 743 742 755 764 771 775 779 782 785 788 791 798 802 805 810 815 817 819 823 824 826 828 829 831 831 830 831 831 830 830 827 828 826 826 825 824 825 824 823
744 729 725 724 726 723 718 728 734 737 738 745 756 763 768 772 776 780 784 788 791 796 802 806 809 815 818 819 821 823 825 827 827 828 830 830 830 831 831 830 828 829 827 827 827 826 826 826 825
734 729 725 724 724 725 728 728 732 733 738 748 756 761 766 770 773 777 781 785 790 793 800 805 809 814 818 820 821 824 825 826 827 827 828 831 830 830 831 830 829 829 829 829 828 827 826 827 826
731 744 733 728 724 729 725 738 741 727 737 748 755 759 763 768 770 774 778 783 789 792 797 804 809 813 816 818 821 822 824 825 826 827 829 831 832 831 832 831 828 828 830 831 831 831 829 825 824
748 744 753 725 724 724 731 747 726 724 736 747 752 755 760 765 766 771 777 781 786 790 795 803 806 809 813 816 819 820 820 822 823 825 826 828 830 831 831 829 827 827 830 829 830 831 828 827 824
748 760 753 733 720 722 732 742 721 722 732 742 749 752 755 760 764 768 773 778 782 789 793 799 803 805 810 813 816 818 819 821 821 822 823 824 826 827 829 828 827 828 829 828 829 829 830 827 827
755 756 738 741 727 729 734 730 720 724 729 734 741 746 751 754 759 763 769 774 780 785 790 795 799 802 805 809 812 814 816 817 817 817 818 820 822 823 824 825 826 828 827 827 829 830 828 828 826
726 734 740 722 713 732 735 733 720 720 728 731 732 739 744 748 750 758 763 769 775 781 786 790 794 798 801 804 806 808 808 810 812 814 815 817 818 819 821 822 823 826 826 826 828 829 829 827 827
739 746 739 721 715 730 733 734 719 715 722 724 725 731 735 739 743 749 755 761 766 773 778 784 787 792 796 799 801 802 803 804 806 808 810 812 814 816 817 818 819 820 822 823 826 827 826 824 823
747 747 743 739 729 731 736 739 730 717 713 712 717 718 720 727 735 739 745 751 757 763 769 776 780 784 788 791 796 799 800 801 800 802 804 807 810 811 813 814 816 817 820 821 823 825 825 822 819
754 731 735 734 740 766 737 769 733 726 727 720 717 717 715 715 720 728 735 743 747 752 762 769 774 779 782 786 789 792 793 795 796 796 797 798 803 805 806 808 809 814 816 818 820 822 823 823 819
747 725 734 739 745 748 741 753 736 713 731 724 718 710 706 705 707 712 722 730 739 747 751 758 765 770 776 781 784 787 790 790 792 793 796 796 799 803 803 804 806 809 811 814 816 818 819 820 819
731 740 742 741 745 765 746 744 736 730 719 717 709 705 698 693 695 699 707 719 729 737 744 750 757 762 769 775 779 784 786 788 788 794 797 797 797 800 801 802 803 806 807 810 812 813 815 815 815
739 751 771 775 769 767 730 738 729 711 701 702 701 698 689 684 682 689 697 705 716 727 735 742 752 760 765 770 775 781 784 786 789 792 799 799 796 797 797 798 798 800 802 806 809 811 811 812 813
744 746 759 776 761 742 711 740 721 692 690 694 694 690 687 688 686 683 690 697 704 714 724 736 746 756 763 769 773 779 784 788 793 796 794 798 795 792 795 796 797 798 799 802 805 808 810 810 811
736 746 729 749 739 748 728 705 695 691 695 697 697 690 687 686 691 689 685 688 694 700 711 723 737 752 759 763 769 775 779 784 791 794 794 794 794 794 794 795 797 797 799 801 801 805 808 810 810
733 720 754 747 779 777 739 727 720 700 701 694 691 685 681 690 693 690 689 685 691 698 702 718 718 742 758 764 766 769 775 775 788 793 792 789 789 791 793 795 797 798 799 800 802 804 807 807 807
737 744 741 738 743 758 755 732 695 702 698 699 695 686 683 691 698 696 691 695 698 710 718 728 739 749 762 768 772 769 761 778 786 788 787 788 790 792 793 795 796 797 800 802 803 804 805 806 807
727 735 733 751 757 743 746 742 689 693 694 696 695 689 686 699 700 701 704 704 713 726 733 742 749 757 764 768 769 767 766 769 778 785 785 790 790 791 793 798 798 799 800 803 804 804 806 806 808